Location: Marcé
(47.5801°N, 0.3280°W)
Time: 22:13:54
(UTC+01:00)

Transit 2A - Pass Details

Date: 08 December 2021
Orbit: 591 x 967 km, 66.7° (Epoch: 23 January)

Event Time Altitude Azimuth Distance (km) Brightness Sun altitude
Rises 00:45:00 0° 222° (SW) 3,332 - -65.1°
Reaches altitude 10° 00:47:22 10° 225° (SW) 2,457 - -65.1°
Maximum altitude 00:53:05 68° 308° (NW) 969 - -65.1°
Drops below altitude 10° 00:59:20 10° 31° (NNE) 2,673 - -65.1°
Sets 01:02:00 0° 34° (NE) 3,646 - -65.1°
